TimeMST,TemperatureF,Dew PointF,Humidity,Sea Level PressureIn,VisibilityMPH,Wind Direction,Wind SpeedMPH,Gust SpeedMPH,PrecipitationIn,Events,Conditions,WindDirDegrees,DateUTC
12:05 AM,17.1,14.0,88,29.87,10.0,NW,6.9,-,N/A,,Mostly Cloudy,310,2013-12-22 07:05:00
12:53 AM,18.0,15.1,88,29.99,10.0,WNW,6.9,-,N/A,,Overcast,300,2013-12-22 07:53:00
1:38 AM,19.0,16.0,88,29.90,10.0,WNW,8.1,-,N/A,,Overcast,290,2013-12-22 08:38:00
1:53 AM,19.0,16.0,88,30.01,10.0,WNW,8.1,-,N/A,,Overcast,300,2013-12-22 08:53:00
2:53 AM,18.0,15.1,88,30.04,10.0,NW,11.5,-,N/A,,Scattered Clouds,310,2013-12-22 09:53:00
3:53 AM,19.0,16.0,88,30.05,10.0,NW,10.4,-,N/A,,Overcast,320,2013-12-22 10:53:00
4:53 AM,19.9,16.0,85,30.08,10.0,WNW,8.1,-,N/A,,Overcast,300,2013-12-22 11:53:00
5:53 AM,18.0,15.1,88,30.10,10.0,West,8.1,-,N/A,,Overcast,280,2013-12-22 12:53:00
6:53 AM,19.9,17.1,89,30.12,10.0,West,6.9,-,N/A,,Overcast,270,2013-12-22 13:53:00
7:53 AM,21.9,17.1,82,30.14,10.0,West,8.1,-,N/A,,Overcast,280,2013-12-22 14:53:00
8:53 AM,24.1,16.0,71,30.16,10.0,WNW,8.1,-,N/A,,Overcast,290,2013-12-22 15:53:00
9:53 AM,26.1,15.1,63,30.17,10.0,West,3.5,-,N/A,,Partly Cloudy,280,2013-12-22 16:53:00
10:53 AM,28.9,14.0,54,30.16,10.0,SSW,5.8,-,N/A,,Scattered Clouds,210,2013-12-22 17:53:00
11:53 AM,32.0,14.0,48,30.13,10.0,SW,6.9,-,N/A,,Clear,230,2013-12-22 18:53:00
12:53 PM,35.1,16.0,46,30.08,10.0,SSW,10.4,-,N/A,,Clear,200,2013-12-22 19:53:00
1:53 PM,35.1,14.0,42,30.05,10.0,SSW,13.8,-,N/A,,Overcast,200,2013-12-22 20:53:00
2:53 PM,36.0,12.9,39,30.05,10.0,West,9.2,-,N/A,,Overcast,270,2013-12-22 21:53:00
3:53 PM,36.0,10.9,36,30.05,10.0,SSW,6.9,-,N/A,,Overcast,200,2013-12-22 22:53:00
4:53 PM,33.1,12.0,42,30.07,10.0,South,8.1,-,N/A,,Overcast,180,2013-12-22 23:53:00
5:53 PM,34.0,12.9,42,30.11,10.0,NNE,9.2,-,N/A,,Overcast,30,2013-12-23 00:53:00
6:53 PM,30.0,21.0,69,30.14,10.0,NNE,11.5,-,N/A,,Overcast,20,2013-12-23 01:53:00
7:53 PM,28.9,26.1,89,30.17,4.0,NW,15.0,-,0.00,Snow,Light Snow,320,2013-12-23 02:53:00
8:30 PM,28.9,24.1,82,30.06,2.5,NNW,15.0,-,0.00,Snow,Light Snow,330,2013-12-23 03:30:00
8:35 PM,28.0,23.0,81,30.07,3.0,NNW,17.3,-,0.00,Snow,Light Snow,340,2013-12-23 03:35:00
8:48 PM,26.6,24.8,93,30.08,2.5,NNW,16.1,26.5,0.00,Snow,Light Snow,340,2013-12-23 03:48:00
8:53 PM,27.0,24.1,89,30.20,1.2,NNW,16.1,-,0.00,Snow,Light Snow,340,2013-12-23 03:53:00
8:59 PM,27.0,25.0,92,30.09,1.0,NNW,19.6,-,0.00,Snow,Light Snow,340,2013-12-23 03:59:00
9:03 PM,27.0,24.1,89,30.09,1.5,North,23.0,-,0.00,Snow,Light Snow,350,2013-12-23 04:03:00
9:12 PM,26.1,24.1,92,30.10,2.5,NNW,19.6,-,0.00,Snow,Light Snow,340,2013-12-23 04:12:00
9:25 PM,26.1,25.0,96,30.10,1.5,North,19.6,-,0.00,Snow,Light Snow,350,2013-12-23 04:25:00
9:31 PM,26.1,24.1,92,30.11,1.0,North,20.7,25.3,0.00,Snow,Light Snow,360,2013-12-23 04:31:00
9:34 PM,26.1,24.1,92,30.11,0.8,North,18.4,25.3,0.00,Snow,Light Snow,360,2013-12-23 04:34:00
9:42 PM,25.0,23.0,92,30.12,1.0,NNE,17.3,-,0.00,Snow,Light Snow,20,2013-12-23 04:42:00
9:45 PM,25.0,23.0,92,30.12,1.8,NNE,20.7,-,0.00,Snow,Light Snow,20,2013-12-23 04:45:00
9:48 PM,24.8,21.2,86,30.12,3.0,NNE,16.1,-,0.00,Snow,Light Snow,20,2013-12-23 04:48:00
9:53 PM,24.1,21.9,91,30.24,8.0,NNE,15.0,-,0.00,,Overcast,30,2013-12-23 04:53:00
10:19 PM,19.9,18.0,92,30.15,3.0,NNE,18.4,-,0.00,Snow,Light Snow,30,2013-12-23 05:19:00
10:53 PM,17.1,14.0,88,30.32,2.0,NE,16.1,-,0.00,Snow,Light Snow,50,2013-12-23 05:53:00
10:57 PM,17.1,14.0,88,30.18,1.2,NE,16.1,24.2,0.00,Snow,Light Snow,40,2013-12-23 05:57:00
11:09 PM,16.0,14.0,92,30.17,2.0,NE,15.0,-,0.00,Snow,Light Snow,40,2013-12-23 06:09:00
11:21 PM,16.0,12.9,88,30.19,4.0,NE,13.8,-,0.00,,Overcast,40,2013-12-23 06:21:00
11:50 PM,15.8,12.2,86,30.21,2.0,NE,13.8,-,0.00,Snow,Light Snow,40,2013-12-23 06:50:00
11:53 PM,15.1,12.0,88,30.34,1.8,NE,13.8,-,0.00,Snow,Light Snow,40,2013-12-23 06:53:00